| time (UTC) | temp F | wind direction | speed MPH | gust MPH | rain 1hr in | rain 24hr in | rain mn in | humidity % | barometer mb |
| 20260506214506 | 57 | 323 | 3.0 | 5.0 | 0.00 | 0.35 | 0.35 | 53 | 1013.6 |
| 20260506214003 | 57 | 355 | 3.0 | 3.0 | 0.00 | 0.35 | 0.35 | 55 | 1013.5 |
| 20260506213500 | 58 | 10 | 3.0 | 5.0 | 0.00 | 0.35 | 0.35 | 53 | 1013.3 |
| 20260506212957 | 58 | 329 | 3.0 | 3.0 | 0.00 | 0.35 | 0.35 | 53 | 1013.4 |
| 20260506212453 | 58 | 348 | 5.0 | 6.0 | 0.00 | 0.35 | 0.35 | 51 | 1013.2 |
| 20260506211948 | 59 | 320 | 2.0 | 2.0 | 0.00 | 0.35 | 0.35 | 52 | 1013.1 |
| 20260506211445 | 59 | 321 | 3.0 | 3.0 | 0.00 | 0.35 | 0.35 | 52 | 1013.0 |
| 20260506210942 | 59 | 356 | 5.0 | 6.0 | 0.00 | 0.35 | 0.35 | 52 | 1013.0 |
| 20260506210438 | 59 | 333 | 2.0 | 3.0 | 0.00 | 0.35 | 0.35 | 51 | 1013.4 |
| 20260506205936 | 59 | 302 | 1.0 | 1.0 | 0.00 | 0.35 | 0.35 | 52 | 1012.9 |
| 20260506205432 | 59 | 2 | 3.0 | 3.0 | 0.00 | 0.35 | 0.35 | 49 | 1013.3 |
| 20260506204928 | 59 | 269 | 1.0 | 1.0 | 0.00 | 0.35 | 0.35 | 53 | 1013.0 |
| 20260506204426 | 59 | 331 | 4.0 | 5.0 | 0.00 | 0.35 | 0.35 | 52 | 1013.0 |
| 20260506203923 | 60 | 341 | 5.0 | 7.0 | 0.00 | 0.35 | 0.35 | 51 | 1013.0 |
| 20260506203420 | 59 | 308 | 5.0 | 6.0 | 0.00 | 0.35 | 0.35 | 50 | 1013.0 |
| 20260506202917 | 59 | 343 | 6.0 | 8.0 | 0.00 | 0.35 | 0.35 | 51 | 1013.1 |
| 20260506202414 | 59 | 0 | 5.0 | 6.0 | 0.00 | 0.35 | 0.35 | 49 | 1013.1 |
| 20260506201911 | 59 | 304 | 2.0 | 2.0 | 0.00 | 0.35 | 0.35 | 51 | 1013.0 |
| 20260506201409 | 59 | 357 | 5.0 | 7.0 | 0.00 | 0.35 | 0.35 | 50 | 1013.0 |
| 20260506200905 | 59 | 353 | 3.0 | 3.0 | 0.00 | 0.35 | 0.35 | 52 | 1013.1 |
| 20260506200401 | 60 | 1 | 3.0 | 3.0 | 0.00 | 0.35 | 0.35 | 50 | 1013.3 |
| 20260506195857 | 60 | 281 | 3.0 | 5.0 | 0.00 | 0.35 | 0.35 | 48 | 1012.8 |
| 20260506195355 | 60 | 287 | 2.0 | 2.0 | 0.00 | 0.35 | 0.35 | 48 | 1012.8 |
| 20260506194851 | 60 | 269 | 2.0 | 2.0 | 0.00 | 0.35 | 0.35 | 49 | 1013.1 |
| 20260506194348 | 60 | 329 | 4.0 | 6.0 | 0.00 | 0.35 | 0.35 | 49 | 1013.0 |
| 20260506193846 | 60 | 348 | 3.0 | 3.0 | 0.00 | 0.35 | 0.35 | 50 | 1012.9 |
| 20260506193342 | 61 | 354 | 4.0 | 5.0 | 0.00 | 0.35 | 0.35 | 50 | 1012.8 |
| 20260506192838 | 60 | 294 | 2.0 | 5.0 | 0.00 | 0.35 | 0.35 | 50 | 1012.9 |
| 20260506192335 | 60 | 314 | 5.0 | 7.0 | 0.00 | 0.35 | 0.35 | 50 | 1012.8 |
| 20260506191832 | 60 | 314 | 4.0 | 5.0 | 0.00 | 0.35 | 0.35 | 50 | 1012.9 |
| 20260506191329 | 60 | 264 | 1.0 | 1.0 | 0.00 | 0.35 | 0.35 | 51 | 1012.9 |
| 20260506190826 | 59 | 328 | 3.0 | 3.0 | 0.00 | 0.35 | 0.35 | 49 | 1012.9 |
| 20260506190322 | 60 | 329 | 3.0 | 5.0 | 0.00 | 0.35 | 0.35 | 51 | 1013.1 |
| 20260506185819 | 59 | 324 | 3.0 | 3.0 | 0.00 | 0.35 | 0.35 | 50 | 1013.2 |
| 20260506185316 | 59 | 339 | 4.0 | 5.0 | 0.00 | 0.35 | 0.35 | 49 | 1013.1 |
| 20260506184813 | 60 | 320 | 5.0 | 7.0 | 0.00 | 0.35 | 0.35 | 50 | 1013.2 |
| 20260506184310 | 61 | 350 | 2.0 | 2.0 | 0.00 | 0.35 | 0.35 | 48 | 1013.1 |
| 20260506183807 | 59 | 276 | 1.0 | 1.0 | 0.00 | 0.35 | 0.35 | 51 | 1013.3 |
| 20260506183303 | 59 | 14 | 3.0 | 5.0 | 0.00 | 0.35 | 0.35 | 47 | 1013.2 |
| 20260506182800 | 59 | 302 | 0.0 | 1.0 | 0.00 | 0.35 | 0.35 | 51 | 1013.1 |
| 20260506182257 | 60 | 308 | 6.0 | 8.0 | 0.00 | 0.35 | 0.35 | 48 | 1013.3 |
| 20260506181755 | 59 | 281 | 3.0 | 3.0 | 0.00 | 0.35 | 0.35 | 47 | 1013.0 |
| 20260506181252 | 59 | 328 | 2.0 | 2.0 | 0.00 | 0.35 | 0.35 | 50 | 1013.1 |
| 20260506180749 | 59 | 313 | 1.0 | 2.0 | 0.00 | 0.35 | 0.35 | 50 | 1013.2 |
| 20260506180245 | 58 | 5 | 4.0 | 5.0 | 0.00 | 0.35 | 0.35 | 49 | 1013.4 |
| 20260506175741 | 58 | 344 | 3.0 | 5.0 | 0.00 | 0.35 | 0.35 | 48 | 1013.6 |
| 20260506175238 | 59 | 37 | 4.0 | 6.0 | 0.00 | 0.35 | 0.35 | 50 | 1013.3 |
| 20260506174736 | 60 | 7 | 4.0 | 6.0 | 0.00 | 0.35 | 0.35 | 54 | 1013.3 |
| 20260506174233 | 58 | 336 | 3.0 | 3.0 | 0.00 | 0.35 | 0.35 | 55 | 1013.2 |
| 20260506173731 | 59 | 7 | 6.0 | 8.0 | 0.00 | 0.35 | 0.35 | 53 | 1013.4 |
| 20260506173227 | 59 | 323 | 4.0 | 5.0 | 0.00 | 0.35 | 0.35 | 55 | 1013.6 |
| 20260506172724 | 59 | 310 | 1.0 | 2.0 | 0.00 | 0.35 | 0.35 | 57 | 1013.2 |
| 20260506172221 | 58 | 310 | 4.0 | 7.0 | 0.00 | 0.35 | 0.35 | 58 | 1013.6 |
| 20260506171718 | 58 | 346 | 3.0 | 3.0 | 0.00 | 0.35 | 0.35 | 59 | 1013.1 |
| 20260506171216 | 57 | 295 | 1.0 | 2.0 | 0.00 | 0.35 | 0.35 | 58 | 1013.1 |
| 20260506170713 | 58 | 341 | 3.0 | 3.0 | 0.00 | 0.35 | 0.35 | 58 | 1013.2 |
| 20260506170210 | 57 | 351 | 5.0 | 6.0 | 0.00 | 0.35 | 0.35 | 62 | 1013.3 |
| 20260506165708 | 57 | 276 | 3.0 | 3.0 | 0.00 | 0.35 | 0.35 | 61 | 1013.3 |
| 20260506165204 | 58 | 309 | 5.0 | 7.0 | 0.00 | 0.35 | 0.35 | 59 | 1013.4 |
| 20260506164702 | 57 | 328 | 2.0 | 2.0 | 0.00 | 0.35 | 0.35 | 64 | 1013.7 |
| 20260506164159 | 58 | 310 | 3.0 | 5.0 | 0.00 | 0.35 | 0.35 | 63 | 1013.5 |
| 20260506163655 | 58 | 302 | 4.0 | 7.0 | 0.00 | 0.35 | 0.35 | 64 | 1013.5 |
| 20260506163150 | 57 | 315 | 1.0 | 1.0 | 0.00 | 0.35 | 0.35 | 63 | 1013.2 |
| 20260506162646 | 57 | 323 | 2.0 | 2.0 | 0.00 | 0.35 | 0.35 | 64 | 1013.1 |
| 20260506162144 | 57 | 310 | 5.0 | 7.0 | 0.00 | 0.35 | 0.35 | 65 | 1012.9 |
| 20260506161641 | 57 | 299 | 1.0 | 1.0 | 0.00 | 0.35 | 0.35 | 71 | 1012.8 |
| 20260506161138 | 56 | 352 | 3.0 | 3.0 | 0.00 | 0.35 | 0.35 | 70 | 1013.0 |
| 20260506160636 | 57 | 327 | 4.0 | 6.0 | 0.00 | 0.35 | 0.35 | 72 | 1013.0 |
| 20260506160132 | 57 | 357 | 3.0 | 3.0 | 0.00 | 0.35 | 0.35 | 71 | 1012.9 |
| 20260506155631 | 57 | 310 | 4.0 | 5.0 | 0.00 | 0.35 | 0.35 | 69 | 1013.2 |
| 20260506155128 | 54 | 11 | 2.0 | 3.0 | 0.00 | 0.35 | 0.35 | 74 | 1012.9 |
| 20260506153230 | 54 | 357 | 7.0 | 8.0 | 0.00 | 0.35 | 0.35 | 73 | 1012.6 |
| 20260506152726 | 54 | 2 | 3.0 | 3.0 | 0.00 | 0.35 | 0.35 | 75 | 1012.6 |
| 20260506152224 | 53 | 297 | 4.0 | 6.0 | 0.00 | 0.35 | 0.35 | 76 | 1012.6 |
| 20260506151723 | 53 | 304 | 5.0 | 7.0 | 0.00 | 0.35 | 0.35 | 77 | 1012.7 |
| 20260506151219 | 53 | 298 | 1.0 | 1.0 | 0.00 | 0.35 | 0.35 | 80 | 1012.9 |
| 20260506150715 | 53 | 298 | 0.0 | 1.0 | 0.00 | 0.35 | 0.35 | 82 | 1012.8 |
| 20260506150213 | 52 | 325 | 2.0 | 2.0 | 0.00 | 0.35 | 0.35 | 82 | 1012.6 |
| 20260506145710 | 52 | 277 | 4.0 | 7.0 | 0.00 | 0.35 | 0.35 | 81 | 1012.4 |
| 20260506145206 | 52 | 298 | 6.0 | 7.0 | 0.00 | 0.35 | 0.35 | 78 | 1012.6 |
| 20260506144704 | 52 | 334 | 5.0 | 6.0 | 0.00 | 0.35 | 0.35 | 79 | 1012.5 |
| 20260506144200 | 52 | 331 | 2.0 | 3.0 | 0.00 | 0.35 | 0.35 | 80 | 1012.4 |
| 20260506143658 | 52 | 310 | 3.0 | 3.0 | 0.00 | 0.35 | 0.35 | 81 | 1012.4 |
| 20260506143156 | 52 | 346 | 1.0 | 2.0 | 0.00 | 0.35 | 0.35 | 81 | 1011.8 |
| 20260506142654 | 52 | 340 | 3.0 | 3.0 | 0.00 | 0.35 | 0.35 | 81 | 1012.3 |
| 20260506142152 | 51 | 355 | 2.0 | 2.0 | 0.00 | 0.35 | 0.35 | 83 | 1012.1 |
| 20260506141649 | 51 | 324 | 3.0 | 3.0 | 0.00 | 0.35 | 0.35 | 84 | 1011.9 |
| 20260506141147 | 51 | 357 | 4.0 | 6.0 | 0.00 | 0.35 | 0.35 | 84 | 1012.2 |
| 20260506140644 | 51 | 299 | 2.0 | 2.0 | 0.00 | 0.35 | 0.35 | 86 | 1011.8 |
| 20260506140142 | 50 | 326 | 1.0 | 1.0 | 0.00 | 0.35 | 0.35 | 86 | 1011.9 |
| 20260506135639 | 50 | 310 | 1.0 | 2.0 | 0.00 | 0.35 | 0.35 | 86 | 1011.5 |
| 20260506135135 | 50 | 312 | 2.0 | 2.0 | 0.00 | 0.35 | 0.35 | 88 | 1011.3 |
| 20260506134631 | 50 | 37 | 2.0 | 2.0 | 0.00 | 0.35 | 0.35 | 89 | 1011.4 |
| 20260506134127 | 50 | 322 | 1.0 | 1.0 | 0.00 | 0.35 | 0.35 | 91 | 1011.3 |
| 20260506133625 | 49 | 330 | 4.0 | 5.0 | 0.00 | 0.35 | 0.35 | 90 | 1011.5 |
| 20260506133121 | 49 | 356 | 2.0 | 2.0 | 0.00 | 0.35 | 0.35 | 90 | 1011.4 |
| 20260506132619 | 49 | 322 | 1.0 | 1.0 | 0.00 | 0.35 | 0.35 | 93 | 1011.4 |
| 20260506132116 | 48 | 338 | 3.0 | 3.0 | 0.00 | 0.35 | 0.35 | 92 | 1011.1 |
| 20260506131613 | 48 | 347 | 2.0 | 2.0 | 0.00 | 0.35 | 0.35 | 94 | 1011.3 |
| 20260506131109 | 48 | 10 | 3.0 | 3.0 | 0.00 | 0.35 | 0.35 | 95 | 1011.4 |
| 20260506130607 | 48 | 334 | 2.0 | 2.0 | 0.00 | 0.35 | 0.35 | 95 | 1011.3 |
| 20260506130104 | 48 | 322 | 2.0 | 2.0 | 0.00 | 0.35 | 0.35 | 96 | 1011.2 |
| 20260506125602 | 48 | 338 | 1.0 | 2.0 | 0.00 | 0.35 | 0.35 | 97 | 1011.3 |
| 20260506125059 | 49 | 333 | 2.0 | 2.0 | 0.00 | 0.35 | 0.35 | 98 | 1011.3 |
| 20260506124557 | 48 | 313 | 1.0 | 2.0 | 0.00 | 0.35 | 0.35 | 98 | 1011.1 |
| 20260506124055 | 47 | 320 | 2.0 | 2.0 | 0.00 | 0.35 | 0.35 | 99 | 1010.8 |
| 20260506123552 | 47 | 21 | 0.0 | 1.0 | 0.00 | 0.35 | 0.35 | 99 | 1010.9 |
| 20260506123051 | 46 | 327 | 1.0 | 2.0 | 0.00 | 0.35 | 0.35 | 99 | 1010.8 |
| 20260506122546 | 46 | 353 | 3.0 | 3.0 | 0.00 | 0.35 | 0.35 | 99 | 1010.4 |
| 20260506122045 | 46 | 337 | 1.0 | 1.0 | 0.00 | 0.35 | 0.35 | 99 | 1010.7 |
| 20260506121542 | 46 | 330 | 2.0 | 2.0 | 0.00 | 0.35 | 0.35 | 99 | 1010.9 |
| 20260506121038 | 46 | 333 | 2.0 | 2.0 | 0.00 | 0.35 | 0.35 | 99 | 1011.0 |
| 20260506120536 | 46 | 340 | 2.0 | 2.0 | 0.00 | 0.35 | 0.35 | 99 | 1010.8 |
| 20260506120033 | 46 | 348 | 2.0 | 3.0 | 0.00 | 0.35 | 0.35 | 99 | 1010.4 |
| 20260506115531 | 46 | 327 | 3.0 | 3.0 | 0.00 | 0.35 | 0.35 | 99 | 1010.4 |
| 20260506115030 | 46 | 354 | 3.0 | 3.0 | 0.00 | 0.35 | 0.35 | 99 | 1010.6 |
| 20260506114526 | 46 | 352 | 5.0 | 6.0 | 0.00 | 0.35 | 0.35 | 99 | 1010.1 |
| 20260506114025 | 46 | 345 | 4.0 | 5.0 | 0.00 | 0.35 | 0.35 | 99 | 1010.4 |
| 20260506113522 | 46 | 329 | 2.0 | 2.0 | 0.00 | 0.35 | 0.35 | 99 | 1009.8 |
| 20260506113020 | 46 | 353 | 3.0 | 5.0 | 0.00 | 0.35 | 0.35 | 99 | 1009.7 |
| 20260506112516 | 47 | 335 | 4.0 | 5.0 | 0.00 | 0.35 | 0.35 | 99 | 1009.5 |
| 20260506112014 | 47 | 328 | 2.0 | 2.0 | 0.00 | 0.35 | 0.35 | 99 | 1009.4 |
| 20260506111512 | 47 | 329 | 2.0 | 3.0 | 0.00 | 0.35 | 0.35 | 98 | 1009.2 |
| 20260506111008 | 47 | 355 | 3.0 | 3.0 | 0.00 | 0.35 | 0.35 | 98 | 1009.2 |
| 20260506110506 | 47 | 348 | 2.0 | 3.0 | 0.00 | 0.35 | 0.35 | 98 | 1009.0 |
| 20260506110003 | 47 | 354 | 3.0 | 3.0 | 0.00 | 0.35 | 0.35 | 98 | 1008.9 |
| 20260506105459 | 47 | 332 | 2.0 | 2.0 | 0.00 | 0.35 | 0.35 | 98 | 1009.0 |
| 20260506104956 | 47 | 348 | 3.0 | 5.0 | 0.00 | 0.35 | 0.35 | 98 | 1009.5 |
| 20260506104454 | 47 | 325 | 2.0 | 2.0 | 0.00 | 0.35 | 0.35 | 98 | 1009.2 |
| 20260506103952 | 47 | 340 | 3.0 | 3.0 | 0.00 | 0.35 | 0.35 | 99 | 1009.1 |
| 20260506103449 | 48 | 321 | 2.0 | 2.0 | 0.00 | 0.35 | 0.35 | 99 | 1009.2 |
| 20260506102946 | 47 | 337 | 1.0 | 2.0 | 0.00 | 0.35 | 0.35 | 99 | 1008.9 |
| 20260506102444 | 47 | 343 | 3.0 | 3.0 | 0.00 | 0.35 | 0.35 | 99 | 1008.3 |
| 20260506101941 | 47 | 16 | 4.0 | 6.0 | 0.00 | 0.35 | 0.35 | 99 | 1008.5 |
| 20260506101437 | 48 | 5 | 1.0 | 1.0 | 0.00 | 0.35 | 0.35 | 99 | 1008.5 |
| 20260506100935 | 48 | 313 | 2.0 | 2.0 | 0.00 | 0.35 | 0.35 | 99 | 1007.8 |
| 20260506100433 | 48 | 318 | 1.0 | 1.0 | 0.05 | 0.35 | 0.35 | 99 | 1008.2 |
| 20260506095931 | 49 | 349 | 4.0 | 6.0 | 0.05 | 0.35 | 0.35 | 99 | 1008.0 |
| 20260506095429 | 49 | 338 | 2.0 | 2.0 | 0.00 | 0.35 | 0.35 | 99 | 1008.3 |
| 20260506094925 | 49 | 331 | 3.0 | 5.0 | 0.00 | 0.35 | 0.35 | 99 | 1007.9 |
| 20260506094424 | 49 | 11 | 3.0 | 3.0 | 0.00 | 0.35 | 0.35 | 99 | 1008.2 |
| 20260506093921 | 50 | 320 | 4.0 | 6.0 | 0.00 | 0.35 | 0.35 | 99 | 1007.8 |
| 20260506093419 | 50 | 334 | 3.0 | 3.0 | 0.00 | 0.35 | 0.35 | 99 | 1008.3 |
| 20260506092916 | 50 | 345 | 2.0 | 3.0 | 0.00 | 0.35 | 0.35 | 99 | 1008.3 |
| 20260506092414 | 50 | 342 | 3.0 | 5.0 | 0.00 | 0.35 | 0.35 | 99 | 1008.0 |
| 20260506091910 | 50 | 333 | 3.0 | 5.0 | 0.00 | 0.35 | 0.35 | 99 | 1007.7 |
| 20260506091408 | 50 | 333 | 2.0 | 2.0 | 0.07 | 0.35 | 0.35 | 99 | 1007.6 |
| 20260506090905 | 50 | 302 | 0.0 | 1.0 | 0.12 | 0.35 | 0.35 | 99 | 1007.5 |
| 20260506090403 | 50 | 339 | 2.0 | 2.0 | 0.17 | 0.34 | 0.34 | 99 | 1008.0 |
| 20260506085859 | 50 | 10 | 4.0 | 6.0 | 0.19 | 0.33 | 0.33 | 99 | 1008.0 |
| 20260506085356 | 50 | 335 | 3.0 | 3.0 | 0.12 | 0.31 | 0.31 | 99 | 1008.2 |
| 20260506084852 | 51 | 335 | 1.0 | 2.0 | 0.07 | 0.29 | 0.29 | 99 | 1008.1 |
| 20260506084349 | 51 | 317 | 2.0 | 2.0 | 0.07 | 0.29 | 0.29 | 99 | 1008.0 |
| 20260506083846 | 51 | 316 | 1.0 | 2.0 | 0.00 | 0.28 | 0.28 | 99 | 1008.0 |
| 20260506083343 | 51 | 351 | 3.0 | 5.0 | 0.00 | 0.28 | 0.28 | 99 | 1008.0 |
| 20260506082841 | 51 | 282 | 1.0 | 2.0 | 0.05 | 0.28 | 0.28 | 99 | 1007.9 |
| 20260506082337 | 52 | 312 | 1.0 | 1.0 | 0.07 | 0.27 | 0.27 | 99 | 1007.7 |
| 20260506081833 | 52 | 317 | 1.0 | 1.0 | 0.12 | 0.27 | 0.27 | 99 | 1007.5 |
| 20260506081331 | 52 | 312 | 1.0 | 1.0 | 0.05 | 0.26 | 0.26 | 99 | 1007.6 |
| 20260506080829 | 52 | 306 | 0.0 | 1.0 | 0.05 | 0.26 | 0.26 | 99 | 1007.2 |
| 20260506080325 | 52 | 299 | 0.0 | 1.0 | 0.00 | 0.25 | 0.25 | 99 | 1007.2 |
| 20260506073309 | 53 | 319 | 2.0 | 2.0 | 0.12 | 0.24 | 0.24 | 99 | 1007.2 |
| 20260506072806 | 54 | 297 | 2.0 | 2.0 | 0.12 | 0.23 | 0.23 | 99 | 1007.0 |
| 20260506072305 | 56 | 337 | 4.0 | 6.0 | 0.12 | 0.22 | 0.22 | 99 | 1007.0 |
| 20260506071801 | 58 | 308 | 3.0 | 3.0 | 0.19 | 0.21 | 0.21 | 99 | 1006.9 |
| 20260506071259 | 58 | 135 | 0.0 | 1.0 | 0.12 | 0.20 | 0.20 | 99 | 1006.8 |
| 20260506070756 | 58 | 255 | 0.0 | 0.0 | 0.05 | 0.18 | 0.18 | 99 | 1006.9 |
| 20260506070253 | 58 | 169 | 2.0 | 2.0 | 0.05 | 0.18 | 0.18 | 99 | 1006.7 |
| 20260506062230 | 58 | 222 | 0.0 | 0.0 | 0.12 | 0.12 | 0.12 | 99 | 1007.3 |
| 20260506061725 | 58 | 179 | 2.0 | 2.0 | 0.07 | 0.11 | 0.11 | 99 | 1007.2 |
| 20260506061223 | 58 | 220 | 1.0 | 2.0 | 0.05 | 0.10 | 0.10 | 99 | 1007.1 |
| 20260506060722 | 58 | 156 | 2.0 | 3.0 | 0.12 | 0.10 | 0.10 | 99 | 1007.1 |
| 20260506060218 | 58 | 267 | 0.0 | 0.0 | 0.14 | 0.09 | 0.09 | 99 | 1007.3 |
| 20260506051150 | 58 | 215 | 0.0 | 1.0 | 0.00 | 0.01 | 0.01 | 99 | 1008.0 |
| 20260506050649 | 58 | 255 | 0.0 | 0.0 | 0.00 | 0.01 | 0.01 | 99 | 1008.0 |
| 20260506050145 | 58 | 259 | 0.0 | 0.0 | 0.00 | 0.01 | 0.01 | 99 | 1007.8 |
| 20260506044636 | 58 | 232 | 0.0 | 1.0 | 0.00 | 0.01 | 0.01 | 99 | 1008.1 |
| 20260506044133 | 58 | 254 | 0.0 | 0.0 | 0.00 | 0.01 | 0.01 | 99 | 1008.3 |
| 20260506043630 | 58 | 258 | 0.0 | 0.0 | 0.00 | 0.01 | 0.01 | 99 | 1008.2 |
| 20260506043128 | 58 | 235 | 0.0 | 1.0 | 0.00 | 0.01 | 0.01 | 99 | 1008.3 |
| 20260506042627 | 58 | 253 | 0.0 | 0.0 | 0.00 | 0.01 | 0.01 | 99 | 1008.1 |
| 20260506042125 | 58 | 182 | 1.0 | 1.0 | 0.00 | 0.01 | 0.01 | 99 | 1008.3 |
| 20260506041623 | 59 | 128 | 1.0 | 1.0 | 0.00 | 0.01 | 0.01 | 99 | 1008.5 |
| 20260506041119 | 59 | 236 | 0.0 | 0.0 | 0.05 | 0.01 | 0.01 | 99 | 1008.6 |
| 20260506040617 | 59 | 239 | 0.0 | 0.0 | 0.05 | 0.01 | 0.01 | 99 | 1008.8 |
| 20260506040114 | 59 | 239 | 0.0 | 0.0 | 0.07 | 0.23 | 0.23 | 99 | 1008.9 |
| 20260506035611 | 59 | 250 | 0.0 | 0.0 | 0.12 | 0.23 | 0.23 | 99 | 1009.0 |
| 20260506035107 | 59 | 241 | 0.0 | 0.0 | 0.17 | 0.22 | 0.22 | 99 | 1009.1 |
| 20260506034605 | 59 | 222 | 1.0 | 1.0 | 0.24 | 0.21 | 0.21 | 99 | 1009.2 |
| 20260506034101 | 59 | 239 | 0.0 | 0.0 | 0.19 | 0.19 | 0.19 | 99 | 1009.5 |
| 20260506033559 | 59 | 256 | 0.0 | 0.0 | 0.12 | 0.17 | 0.17 | 99 | 1009.3 |
| 20260506033055 | 59 | 242 | 0.0 | 1.0 | 0.12 | 0.16 | 0.16 | 99 | 1009.3 |
| 20260506032553 | 59 | 219 | 1.0 | 1.0 | 0.07 | 0.15 | 0.15 | 99 | 1009.4 |
| 20260506032050 | 59 | 261 | 0.0 | 0.0 | 0.00 | 0.14 | 0.14 | 99 | 1009.4 |
| 20260506031547 | 59 | 265 | 0.0 | 0.0 | 0.05 | 0.14 | 0.14 | 99 | 1009.5 |
| 20260506031044 | 59 | 240 | 0.0 | 0.0 | 0.05 | 0.14 | 0.14 | 99 | 1009.5 |
| 20260506030542 | 59 | 240 | 0.0 | 0.0 | 0.07 | 0.13 | 0.13 | 99 | 1009.4 |
| 20260506030039 | 59 | 216 | 0.0 | 1.0 | 0.12 | 0.13 | 0.13 | 99 | 1009.6 |
| 20260506025536 | 59 | 257 | 0.0 | 0.0 | 0.07 | 0.11 | 0.11 | 99 | 1009.3 |
| 20260506025032 | 59 | 294 | 0.0 | 0.0 | 0.12 | 0.11 | 0.11 | 99 | 1009.3 |
| 20260506024529 | 59 | 295 | 0.0 | 0.0 | 0.12 | 0.10 | 0.10 | 99 | 1009.3 |
| 20260506024025 | 59 | 303 | 0.0 | 0.0 | 0.12 | 0.10 | 0.10 | 99 | 1009.3 |
| 20260506023522 | 59 | 305 | 0.0 | 0.0 | 0.05 | 0.08 | 0.08 | 99 | 1009.7 |
| 20260506023020 | 59 | 310 | 0.0 | 0.0 | 0.07 | 0.07 | 0.07 | 99 | 1009.3 |
| 20260506022517 | 59 | 310 | 0.0 | 0.0 | 0.07 | 0.07 | 0.07 | 99 | 1009.4 |
| 20260506022014 | 59 | 311 | 0.0 | 0.0 | 0.07 | 0.07 | 0.07 | 99 | 1009.1 |
| 20260506021512 | 59 | 312 | 0.0 | 0.0 | 0.05 | 0.06 | 0.06 | 99 | 1009.1 |
| 20260506021009 | 59 | 314 | 0.0 | 0.0 | 0.05 | 0.06 | 0.06 | 98 | 1009.3 |
| 20260506020506 | 59 | 315 | 0.0 | 0.0 | 0.00 | 0.05 | 0.05 | 98 | 1009.0 |
| 20260506020003 | 59 | 316 | 1.0 | 1.0 | 0.07 | 0.05 | 0.05 | 98 | 1009.1 |
| 20260506015501 | 59 | 296 | 0.0 | 0.0 | 0.07 | 0.05 | 0.05 | 98 | 1009.0 |
| 20260506014957 | 59 | 295 | 0.0 | 0.0 | 0.00 | 0.04 | 0.04 | 98 | 1008.8 |
| 20260506014454 | 59 | 277 | 0.0 | 0.0 | 0.05 | 0.04 | 0.04 | 98 | 1009.2 |
| 20260506013950 | 59 | 277 | 0.0 | 0.0 | 0.05 | 0.04 | 0.04 | 98 | 1008.9 |
| 20260506013449 | 59 | 270 | 0.0 | 0.0 | 0.00 | 0.03 | 0.03 | 97 | 1009.1 |
| 20260506012944 | 59 | 277 | 0.0 | 0.0 | 0.00 | 0.03 | 0.03 | 97 | 1008.8 |
| 20260506012441 | 60 | 277 | 0.0 | 0.0 | 0.00 | 0.03 | 0.03 | 97 | 1008.6 |
| 20260506011938 | 60 | 266 | 0.0 | 0.0 | 0.00 | 0.03 | 0.03 | 97 | 1009.0 |
| 20260506011436 | 60 | 264 | 0.0 | 0.0 | 0.00 | 0.03 | 0.03 | 96 | 1009.1 |
| 20260506010932 | 60 | 274 | 0.0 | 0.0 | 0.00 | 0.03 | 0.03 | 96 | 1008.9 |
| 20260506010432 | 59 | 300 | 0.0 | 0.0 | 0.00 | 0.03 | 0.03 | 96 | 1009.0 |
| 20260506005927 | 60 | 301 | 0.0 | 0.0 | 0.00 | 0.03 | 0.03 | 96 | 1008.7 |
| 20260506005425 | 60 | 263 | 0.0 | 0.0 | 0.00 | 0.03 | 0.03 | 96 | 1008.6 |
| 20260506004920 | 60 | 292 | 0.0 | 0.0 | 0.00 | 0.03 | 0.03 | 96 | 1008.9 |
| 20260506004418 | 60 | 263 | 0.0 | 0.0 | 0.00 | 0.03 | 0.03 | 96 | 1009.2 |
| 20260506003914 | 60 | 252 | 0.0 | 0.0 | 0.00 | 0.03 | 0.03 | 96 | 1009.2 |
| 20260506003410 | 60 | 273 | 0.0 | 0.0 | 0.00 | 0.03 | 0.03 | 96 | 1009.3 |
| 20260506002907 | 60 | 283 | 0.0 | 0.0 | 0.00 | 0.03 | 0.03 | 96 | 1009.1 |
| 20260506002403 | 60 | 247 | 2.0 | 2.0 | 0.00 | 0.03 | 0.03 | 96 | 1009.2 |
| 20260506001859 | 60 | 184 | 1.0 | 1.0 | 0.00 | 0.03 | 0.03 | 96 | 1009.4 |
| 20260506001356 | 60 | 255 | 0.0 | 0.0 | 0.00 | 0.03 | 0.03 | 96 | 1009.4 |
| 20260506000853 | 60 | 233 | 1.0 | 1.0 | 0.00 | 0.03 | 0.03 | 96 | 1009.4 |
| 20260506000351 | 60 | 252 | 0.0 | 1.0 | 0.00 | 0.03 | 0.03 | 96 | 1009.2 |
| 20260505235847 | 60 | 267 | 0.0 | 0.0 | 0.00 | 0.03 | 0.03 | 96 | 1008.9 |
| 20260505235345 | 60 | 273 | 0.0 | 0.0 | 0.00 | 0.03 | 0.03 | 96 | 1008.7 |
| 20260505234842 | 60 | 274 | 0.0 | 0.0 | 0.00 | 0.03 | 0.03 | 96 | 1009.0 |
| 20260505234340 | 60 | 270 | 0.0 | 0.0 | 0.00 | 0.03 | 0.03 | 95 | 1009.0 |
| 20260505233836 | 60 | 246 | 1.0 | 1.0 | 0.00 | 0.03 | 0.03 | 95 | 1009.5 |
| 20260505233334 | 60 | 213 | 2.0 | 2.0 | 0.00 | 0.03 | 0.03 | 95 | 1009.4 |
| 20260505232831 | 60 | 274 | 0.0 | 0.0 | 0.07 | 0.03 | 0.03 | 95 | 1009.3 |
| 20260505232329 | 60 | 261 | 0.0 | 0.0 | 0.07 | 0.03 | 0.03 | 95 | 1009.5 |
| 20260505231825 | 60 | 254 | 1.0 | 1.0 | 0.00 | 0.02 | 0.02 | 94 | 1009.7 |
| 20260505231323 | 60 | 258 | 2.0 | 2.0 | 0.00 | 0.02 | 0.02 | 93 | 1009.5 |
| 20260505230821 | 60 | 228 | 3.0 | 3.0 | 0.00 | 0.02 | 0.02 | 93 | 1009.6 |
| 20260505230318 | 60 | 255 | 2.0 | 3.0 | 0.05 | 0.02 | 0.02 | 93 | 1009.7 |
| 20260505225814 | 61 | 232 | 3.0 | 3.0 | 0.12 | 0.02 | 0.02 | 90 | 1009.7 |
| 20260505225312 | 62 | 331 | 1.0 | 1.0 | 0.07 | 0.01 | 0.01 | 87 | 1009.8 |
| 20260505224807 | 68 | 301 | 2.0 | 2.0 | 0.00 | 0.00 | 0.00 | 75 | 1009.8 |
| 20260505224305 | 70 | 231 | 3.0 | 6.0 | 0.00 | 0.00 | 0.00 | 61 | 1009.1 |
| 20260505223802 | 70 | 245 | 3.0 | 5.0 | 0.00 | 0.00 | 0.00 | 58 | 1009.0 |
| 20260505223259 | 70 | 237 | 3.0 | 3.0 | 0.00 | 0.00 | 0.00 | 57 | 1008.9 |
| 20260505222754 | 70 | 171 | 3.0 | 3.0 | 0.00 | 0.00 | 0.00 | 58 | 1008.8 |
| 20260505222251 | 70 | 229 | 1.0 | 2.0 | 0.00 | 0.00 | 0.00 | 59 | 1008.9 |
| 20260505221748 | 70 | 181 | 4.0 | 5.0 | 0.00 | 0.00 | 0.00 | 57 | 1009.2 |
| 20260505221245 | 70 | 242 | 3.0 | 5.0 | 0.00 | 0.00 | 0.00 | 57 | 1009.0 |
| 20260505220741 | 71 | 160 | 2.0 | 2.0 | 0.00 | 0.00 | 0.00 | 57 | 1009.0 |
| 20260505220239 | 70 | 257 | 6.0 | 8.0 | 0.00 | 0.00 | 0.00 | 57 | 1009.0 |
| 20260505215737 | 70 | 213 | 2.0 | 3.0 | 0.00 | 0.00 | 0.00 | 59 | 1009.0 |
| 20260505215234 | 71 | 183 | 2.0 | 3.0 | 0.00 | 0.00 | 0.00 | 58 | 1008.8 |